Rome Ciampino, Italy

6:54 PM CEST on May 26, 2018 (GMT +0200)
Ciampino

Weather History for LIRA - November, 2012

Change the Weather History Date:

Saturday, November 17, 2012

  Actual Average Record
Temperature  
Mean Temperature 53 °F -  
Max Temperature 60 °F 58 °F 68 °F (2000)
Min Temperature 46 °F 41 °F 37 °F (2007)
Degree Days  
Heating Degree Days 12    
Growing Degree Days 3 (Base 50)    
Moisture  
Dew Point 52 °F    
Average Humidity 93    
Maximum Humidity 100    
Minimum Humidity 77    
Precipitation  
Precipitation 0.00 in 0.16 in - ()
Sea Level Pressure  
Sea Level Pressure 29.98 in    
Wind  
Wind Speed 3 mph ()    
Max Wind Speed 6 mph    
Max Gust Speed -    
Visibility 5.8 miles    
Events Rain    
Averages and records for this station are not official NWS values.
T = Trace of Precipitation, MM = Missing Value Source: Averaged Metar Reports

Daily Weather History Graph

Daily Weather History Graph

Search for Another Location

Airport or City:

Astronomy

Nov. 17, 2012 Rise Set
Actual Time 7:01 AM CET 4:47 PM CET
Civil Twilight 6:31 AM CET 5:17 PM CET
Nautical Twilight 5:57 AM CET 5:51 PM CET
Astronomical Twilight 5:24 AM CET 6:24 PM CET
Moon 10:33 AM CET (11/17) 8:37 PM CET (11/17)
Length of Visible Light 10h 45m
Length of Day
9h 45m
Waxing Crescent, 18% of the Moon is Illuminated
Nov 17
Waxing Crescent
Nov 20
First Quarter
Nov 28
Full
Dec 6
Last Quarter
Dec 13
New

Hourly Weather History & Observations

Time (CET) Temp. Windchill Dew Point Humidity Pressure Visibility Wind Dir Wind Speed Gust Speed Precip Events Conditions
12:15 AM 50.0 °F - 48.2 °F 94% 30.04 in 6.2 mi North 3.5 mph - N/A   Scattered Clouds
12:45 AM 50.0 °F - 48.2 °F 94% 30.04 in 6.2 mi North 2.3 mph - N/A   Scattered Clouds
1:15 AM 50.0 °F - 48.2 °F 94% 30.04 in 6.2 mi NNE 2.3 mph - N/A   Scattered Clouds
1:45 AM 48.2 °F - 48.2 °F 100% 30.04 in 6.2 mi NNE 2.3 mph - N/A   Partly Cloudy
2:15 AM 48.2 °F - 46.4 °F 93% 30.04 in 6.2 mi NNE 4.6 mph - N/A   Partly Cloudy
2:45 AM 48.2 °F - 46.4 °F 93% 30.01 in 6.2 mi NE 3.5 mph - N/A   Partly Cloudy
3:15 AM 46.4 °F - 46.4 °F 100% 30.01 in 6.2 mi NE 2.3 mph - N/A   Scattered Clouds
3:45 AM 46.4 °F - 46.4 °F 100% 30.01 in 6.2 mi NNE 2.3 mph - N/A   Scattered Clouds
4:15 AM 48.2 °F - 46.4 °F 93% 30.01 in 6.2 mi NNE 2.3 mph - N/A   Scattered Clouds
4:45 AM 48.2 °F - 46.4 °F 93% 30.01 in 6.2 mi NNE 2.3 mph - N/A   Scattered Clouds
5:15 AM 46.4 °F 44.3 °F 46.4 °F 100% 30.01 in 6.2 mi ENE 4.6 mph - N/A   Scattered Clouds
5:45 AM 46.4 °F 44.3 °F 46.4 °F 100% 30.01 in 6.2 mi NE 4.6 mph - N/A   Scattered Clouds
6:15 AM 46.4 °F 45.2 °F 46.4 °F 100% 30.01 in 6.2 mi NE 3.5 mph - N/A   Scattered Clouds
6:45 AM 46.4 °F - 46.4 °F 100% 30.01 in 6.2 mi North 2.3 mph - N/A   Scattered Clouds
7:15 AM 46.4 °F 45.2 °F 46.4 °F 100% 30.01 in 6.2 mi NE 3.5 mph - N/A   Scattered Clouds
7:45 AM 46.4 °F - 46.4 °F 100% 30.01 in 6.2 mi NE 2.3 mph - N/A   Scattered Clouds
8:15 AM 48.2 °F - 48.2 °F 100% 30.01 in 6.2 mi NE 2.3 mph - N/A   Partly Cloudy
8:45 AM 48.2 °F - 48.2 °F 100% 30.01 in 6.2 mi North 3.5 mph - N/A   Partly Cloudy
9:15 AM 50.0 °F - 50.0 °F 100% 30.01 in 6.2 mi NNE 3.5 mph - N/A   Partly Cloudy
9:45 AM 53.6 °F - 51.8 °F 94% 30.01 in 6.2 mi NNE 3.5 mph - N/A   Partly Cloudy
10:15 AM 53.6 °F - 51.8 °F 94% 30.01 in 6.2 mi NNE 3.5 mph - N/A   Mostly Cloudy
10:45 AM 55.4 °F - 53.6 °F 94% 30.01 in 6.2 mi NE 3.5 mph - N/A   Mostly Cloudy
11:15 AM 55.4 °F - 51.8 °F 88% 30.01 in 6.2 mi NE 4.6 mph - N/A   Mostly Cloudy
11:45 AM 57.2 °F - 53.6 °F 88% 30.01 in 6.2 mi NE 4.6 mph - N/A   Mostly Cloudy
12:15 PM 59.0 °F - 55.4 °F 88% 29.98 in 6.2 mi NE 4.6 mph - N/A   Mostly Cloudy
12:45 PM 60.8 °F - 55.4 °F 82% 29.98 in 6.2 mi NE 3.5 mph - N/A   Scattered Clouds
1:15 PM 60.8 °F - 53.6 °F 77% 29.98 in 6.2 mi North 4.6 mph - N/A   Mostly Cloudy
1:45 PM 60.8 °F - 53.6 °F 77% 29.98 in 6.2 mi ENE 5.8 mph - N/A   Scattered Clouds
2:15 PM 60.8 °F - 53.6 °F 77% 29.95 in 6.2 mi NNE 4.6 mph - N/A   Scattered Clouds
2:45 PM 60.8 °F - 53.6 °F 77% 29.95 in 6.2 mi NNE 3.5 mph - N/A   Scattered Clouds
3:15 PM 60.8 °F - 53.6 °F 77% 29.95 in 6.2 mi NE 5.8 mph - N/A   Scattered Clouds
3:45 PM 60.8 °F - 53.6 °F 77% 29.95 in 6.2 mi NE 3.5 mph - N/A   Partly Cloudy
4:15 PM 59.0 °F - 53.6 °F 82% 29.95 in 6.2 mi NE 3.5 mph - N/A   Partly Cloudy
4:45 PM 59.0 °F - 53.6 °F 82% 29.92 in 6.2 mi NE 2.3 mph - N/A   Scattered Clouds
5:15 PM 59.0 °F - 53.6 °F 82% 29.92 in 6.2 mi NE 3.5 mph - N/A   Scattered Clouds
5:45 PM 57.2 °F - 53.6 °F 88% 29.92 in 6.2 mi NE 3.5 mph - N/A   Scattered Clouds
6:15 PM 57.2 °F - 53.6 °F 88% 29.92 in 6.2 mi NE 2.3 mph - N/A   Scattered Clouds
6:45 PM 57.2 °F - 55.4 °F 94% 29.92 in 6.2 mi Calm Calm - N/A   Scattered Clouds
7:15 PM 57.2 °F - 55.4 °F 94% 29.92 in 6.2 mi Calm Calm - N/A   Scattered Clouds
7:45 PM 57.2 °F - 55.4 °F 94% 29.92 in 6.2 mi SSE 1.2 mph - N/A   Scattered Clouds
8:15 PM 57.2 °F - 55.4 °F 94% 29.92 in 5.0 mi SSW 1.2 mph - N/A Rain Light Rain
8:45 PM 57.2 °F - 57.2 °F 100% 29.92 in 5.0 mi Calm Calm - N/A Rain Light Rain
9:15 PM 57.2 °F - 57.2 °F 100% 29.92 in 5.0 mi Calm Calm - N/A Rain Light Rain
9:45 PM 57.2 °F - 57.2 °F 100% 29.92 in 4.3 mi NW 2.3 mph - N/A Rain Light Rain
10:15 PM 55.4 °F - 55.4 °F 100% 29.92 in 3.7 mi NNW 2.3 mph - N/A Rain Light Rain
10:45 PM 55.4 °F - 55.4 °F 100% 29.92 in 3.1 mi NNW 3.5 mph - N/A Rain Light Rain
11:15 PM 55.4 °F - 55.4 °F 100% 29.92 in 3.1 mi North 3.5 mph - N/A Rain Light Rain
11:45 PM 55.4 °F - 55.4 °F 100% 29.92 in 3.1 mi North 5.8 mph - N/A Rain Light Rain